• în Republica Moldova
  • Lista ţărilor
  • Pe 7 zile
  • Temperatura apei
  • Hartă satelitară
  • Meteo pe hartă
  • Widget-uri
  • user-avatar
    Intrare

    Meteo pe oră la Malanje

    Astăzi, 17 Octombrie, Marţi

    Timp Temperatura Precipitaţii Vânt Presiune Umiditate
    00:00 +23°C° 0 mm 2 m/s 665 mmHg 80%
    01:00 +21°C° 0 mm 2 m/s 665 mmHg 84%
    02:00 +20°C° 0 mm 2 m/s 665 mmHg 86%
    03:00 +20°C° 0 mm 2 m/s 665 mmHg 88%
    04:00 +19°C° 0 mm 2 m/s 665 mmHg 90%
    05:00 +20°C° 0 mm 2 m/s 665 mmHg 88%
    06:00 +20°C° 0 mm 2 m/s 666 mmHg 86%
    07:00 +21°C° 0 mm 2 m/s 666 mmHg 84%
    08:00 +25°C° 0 mm 2 m/s 667 mmHg 72%
    09:00 +28°C° 0 mm 2 m/s 667 mmHg 60%
    10:00 +31°C° 0 mm 2 m/s 668 mmHg 48%
    11:00 +32°C° 0 mm 2 m/s 668 mmHg 43%
    12:00 +34°C° 0 mm 1 m/s 667 mmHg 38%
    13:00 +35°C° 0 mm 1 m/s 667 mmHg 32%
    14:00 +34°C° 0 mm 1 m/s 666 mmHg 35%
    15:00 +33°C° 0 mm 1 m/s 665 mmHg 38%
    16:00 +32°C° 0 mm 1 m/s 665 mmHg 41%
    17:00 +30°C° 0 mm 1 m/s 665 mmHg 45%
    18:00 +29°C° 0 mm 2 m/s 665 mmHg 49%
    19:00 +27°C° 0 mm 2 m/s 665 mmHg 53%
    20:00 +26°C° 0 mm 2 m/s 665 mmHg 55%
    21:00 +25°C° 0 mm 2 m/s 666 mmHg 58%
    22:00 +24°C° 0 mm 3 m/s 666 mmHg 61%
    23:00 +24°C° 0 mm 3 m/s 665 mmHg 68%

    Mâine, 18 Octombrie, Miercuri

    Timp Temperatura Precipitaţii Vânt Presiune Umiditate
    00:00 +22°C° 0 mm 3 m/s 665 mmHg 74%
    01:00 +21°C° 0 mm 3 m/s 665 mmHg 81%
    02:00 +20°C° 0 mm 3 m/s 664 mmHg 84%
    03:00 +20°C° 0 mm 3 m/s 664 mmHg 87%
    04:00 +20°C° 0 mm 3 m/s 664 mmHg 90%
    05:00 +20°C° 0 mm 3 m/s 665 mmHg 88%
    06:00 +20°C° 0 mm 3 m/s 665 mmHg 86%
    07:00 +21°C° 0 mm 4 m/s 666 mmHg 84%
    08:00 +22°C° 0 mm 3 m/s 666 mmHg 77%
    09:00 +25°C° 0 mm 3 m/s 667 mmHg 70%
    10:00 +26°C° 0 mm 3 m/s 667 mmHg 63%
    11:00 +28°C° 0 mm 3 m/s 667 mmHg 56%
    12:00 +30°C° 0 mm 3 m/s 666 mmHg 49%
    13:00 +33°C° 0 mm 3 m/s 666 mmHg 43%
    14:00 +33°C° 0 mm 3 m/s 665 mmHg 43%
    15:00 +33°C° 0 mm 3 m/s 665 mmHg 43%
    16:00 +32°C° 0 mm 4 m/s 664 mmHg 44%
    17:00 +29°C° 0 mm 4 m/s 664 mmHg 50%
    18:00 +27°C° 0 mm 3 m/s 664 mmHg 56%
    19:00 +25°C° 0 mm 3 m/s 665 mmHg 62%
    20:00 +25°C° 0 mm 3 m/s 665 mmHg 64%
    21:00 +24°C° 0 mm 3 m/s 666 mmHg 67%
    22:00 +22°C° 0 mm 3 m/s 666 mmHg 70%
    23:00 +22°C° 0 mm 3 m/s 666 mmHg 75%

    Poimâine, 19 Octombrie, Joi

    Timp Temperatura Precipitaţii Vânt Presiune Umiditate
    00:00 +21°C° 0 mm 3 m/s 665 mmHg 81%
    01:00 +20°C° 0 mm 3 m/s 665 mmHg 86%
    02:00 +20°C° 0 mm 3 m/s 665 mmHg 86%
    03:00 +20°C° 0 mm 3 m/s 665 mmHg 87%
    04:00 +20°C° 0 mm 3 m/s 664 mmHg 87%
    05:00 +20°C° 0 mm 3 m/s 665 mmHg 85%
    06:00 +20°C° 0 mm 3 m/s 666 mmHg 83%
    07:00 +21°C° 0 mm 3 m/s 666 mmHg 80%
    08:00 +24°C° 0 mm 3 m/s 667 mmHg 71%
    09:00 +26°C° 0 mm 3 m/s 667 mmHg 62%
    10:00 +28°C° 0 mm 3 m/s 667 mmHg 53%
    11:00 +30°C° 0 mm 3 m/s 667 mmHg 48%
    12:00 +33°C° 0 mm 3 m/s 666 mmHg 43%
    13:00 +34°C° 0 mm 3 m/s 666 mmHg 37%
    14:00 +34°C° 0 mm 3 m/s 665 mmHg 38%
    15:00 +33°C° 0 mm 3 m/s 665 mmHg 39%
    16:00 +33°C° 0 mm 3 m/s 664 mmHg 40%
    17:00 +30°C° 0 mm 3 m/s 664 mmHg 46%
    18:00 +28°C° 0 mm 4 m/s 665 mmHg 51%
    19:00 +26°C° 0 mm 4 m/s 665 mmHg 57%
    20:00 +25°C° 0 mm 4 m/s 665 mmHg 60%
    21:00 +23°C° 0 mm 4 m/s 665 mmHg 63%
    22:00 +23°C° 0 mm 4 m/s 666 mmHg 66%
    23:00 +22°C° 0,1 mm 4 m/s 665 mmHg 72%

    20 Octombrie, Vineri

    Timp Temperatura Precipitaţii Vânt Presiune Umiditate
    00:00 +21°C° 0,1 mm 4 m/s 665 mmHg 77%
    01:00 +21°C° 0,1 mm 4 m/s 664 mmHg 83%
    02:00 +20°C° 0 mm 4 m/s 664 mmHg 84%
    03:00 +20°C° 0 mm 3 m/s 664 mmHg 86%
    04:00 +19°C° 0 mm 3 m/s 664 mmHg 87%
    05:00 +20°C° 0,4 mm 3 m/s 665 mmHg 86%
    06:00 +20°C° 0,4 mm 2 m/s 666 mmHg 85%
    07:00 +20°C° 0,4 mm 2 m/s 667 mmHg 84%
    08:00 +23°C° 0,4 mm 2 m/s 668 mmHg 73%
    09:00 +26°C° 0,4 mm 2 m/s 668 mmHg 62%
    10:00 +28°C° 0,4 mm 2 m/s 669 mmHg 51%
    11:00 +30°C° 0 mm 2 m/s 668 mmHg 45%
    12:00 +32°C° 0 mm 2 m/s 667 mmHg 39%
    13:00 +35°C° 0 mm 2 m/s 666 mmHg 33%
    14:00 +35°C° 0 mm 2 m/s 666 mmHg 34%
    15:00 +34°C° 0 mm 2 m/s 665 mmHg 34%
    16:00 +34°C° 0 mm 2 m/s 665 mmHg 35%
    17:00 +31°C° 0 mm 2 m/s 665 mmHg 39%
    18:00 +29°C° 0 mm 2 m/s 665 mmHg 44%
    19:00 +27°C° 0 mm 2 m/s 665 mmHg 48%
    20:00 +26°C° 0 mm 2 m/s 665 mmHg 50%
    21:00 +25°C° 0 mm 3 m/s 666 mmHg 52%
    22:00 +24°C° 0 mm 3 m/s 666 mmHg 53%
    23:00 +23°C° 0 mm 2 m/s 665 mmHg 59%

    21 Octombrie, Sâmbătă

    Timp Temperatura Precipitaţii Vânt Presiune Umiditate
    00:00 +21°C° 0 mm 2 m/s 665 mmHg 65%
    01:00 +21°C° 0 mm 2 m/s 665 mmHg 71%
    02:00 +20°C° 0 mm 2 m/s 665 mmHg 75%
    03:00 +20°C° 0 mm 2 m/s 665 mmHg 78%
    04:00 +19°C° 0 mm 2 m/s 665 mmHg 82%
    05:00 +20°C° 0 mm 2 m/s 666 mmHg 79%
    06:00 +20°C° 0 mm 2 m/s 666 mmHg 77%
    07:00 +22°C° 0 mm 1 m/s 667 mmHg 74%
    08:00 +25°C° 0 mm 1 m/s 667 mmHg 62%
    09:00 +29°C° 0 mm 1 m/s 668 mmHg 50%
    10:00 +33°C° 0 mm 1 m/s 668 mmHg 38%
    11:00 +34°C° 0 mm 1 m/s 668 mmHg 34%
    12:00 +36°C° 0 mm 1 m/s 667 mmHg 31%
    13:00 +37°C° 0 mm 1 m/s 666 mmHg 28%
    14:00 +36°C° 0 mm 1 m/s 666 mmHg 30%
    15:00 +35°C° 0 mm 1 m/s 665 mmHg 32%
    16:00 +33°C° 0 mm 1 m/s 664 mmHg 34%
    17:00 +32°C° 0 mm 2 m/s 665 mmHg 37%
    18:00 +30°C° 0 mm 2 m/s 665 mmHg 40%
    19:00 +28°C° 0 mm 2 m/s 665 mmHg 44%
    20:00 +27°C° 0 mm 2 m/s 665 mmHg 46%
    21:00 +26°C° 0 mm 2 m/s 666 mmHg 49%
    22:00 +25°C° 0 mm 2 m/s 666 mmHg 51%
    23:00 +24°C° 0 mm 2 m/s 666 mmHg 58%

    22 Octombrie, Duminică

    Timp Temperatura Precipitaţii Vânt Presiune Umiditate
    00:00 +23°C° 0 mm 2 m/s 665 mmHg 64%
    01:00 +21°C° 0 mm 3 m/s 665 mmHg 71%
    02:00 +20°C° 0,1 mm 2 m/s 665 mmHg 75%
    03:00 +19°C° 0,1 mm 2 m/s 665 mmHg 78%
    04:00 +19°C° 0,1 mm 2 m/s 665 mmHg 82%
    05:00 +19°C° 0,2 mm 2 m/s 666 mmHg 80%
    06:00 +21°C° 0,2 mm 1 m/s 666 mmHg 79%
    07:00 +22°C° 0,2 mm 1 m/s 667 mmHg 77%
    08:00 +25°C° 0,2 mm 1 m/s 667 mmHg 65%
    09:00 +28°C° 0,2 mm 1 m/s 668 mmHg 53%
    10:00 +31°C° 0,2 mm 2 m/s 668 mmHg 41%
    11:00 +34°C° 0 mm 1 m/s 668 mmHg 37%
    12:00 +36°C° 0 mm 1 m/s 668 mmHg 32%
    13:00 +37°C° 0 mm 0 m/s 667 mmHg 27%
    14:00 +35°C° 0 mm 0 m/s 666 mmHg 31%
    15:00 +32°C° 0 mm 0 m/s 665 mmHg 34%
    16:00 +30°C° 0 mm 0 m/s 665 mmHg 38%
    17:00 +31°C° 0 mm 1 m/s 664 mmHg 41%
    18:00 +29°C° 0 mm 1 m/s 664 mmHg 44%
    19:00 +27°C° 0 mm 1 m/s 664 mmHg 47%
    20:00 +26°C° 0 mm 1 m/s 664 mmHg 49%
    21:00 +25°C° 0 mm 1 m/s 665 mmHg 52%
    22:00 +25°C° 0 mm 2 m/s 665 mmHg 54%
    23:00 +24°C° 0 mm 2 m/s 665 mmHg 61%
    Arată mai mult